CDT,Max TemperatureF,Mean TemperatureF,Min TemperatureF,Max Dew PointF,MeanDew PointF,Min DewpointF,Max Humidity, Mean Humidity, Min Humidity, Max Sea Level PressureIn, Mean Sea Level PressureIn, Min Sea Level PressureIn, Max VisibilityMiles, Mean VisibilityMiles, Min VisibilityMiles, Max Wind SpeedMPH, Mean Wind SpeedMPH, Max Gust SpeedMPH,PrecipitationIn, CloudCover, Events, WindDirDegrees
2011-10-1,66,51,36,39,32,23,93,55,20,30.35,30.28,30.18,10,10,10,8,6,,0.00,0,,22
2011-10-2,71,56,41,38,32,25,76,46,19,30.32,30.27,30.19,10,10,10,7,2,,0.00,0,,50
2011-10-3,79,67,55,38,33,28,53,27,15,30.27,30.21,30.17,10,10,10,6,2,,0.00,0,,22
2011-10-4,81,64,48,42,38,36,64,40,20,30.29,30.22,30.17,10,10,10,8,4,,0.00,0,,173
2011-10-5,82,72,61,45,43,39,56,36,22,30.21,30.15,30.11,10,10,10,13,9,18,0.00,0,,156
2011-10-6,84,68,54,52,48,46,77,52,27,30.20,30.14,30.10,10,10,10,16,8,24,0.03,0,,150
2011-10-7,86,72,57,54,50,44,81,51,24,30.22,30.17,30.12,10,10,10,22,9,34,0.00,0,,162
2011-10-8,84,70,57,54,51,45,81,53,26,30.26,30.20,30.17,10,10,10,16,9,24,0.00,0,,158
2011-10-9,80,68,55,55,50,46,87,57,30,30.28,30.21,30.15,10,10,10,16,8,24,0.00,0,,138
2011-10-10,78,66,54,54,51,46,77,59,42,30.14,30.07,30.00,10,10,10,14,7,21,0.00,1,,149
2011-10-11,79,70,62,62,58,55,93,71,48,30.00,29.92,29.84,10,9,2,10,5,16,0.10,5,Rain-Thunderstorm,152
2011-10-12,71,66,60,62,59,57,94,82,63,29.83,29.73,29.63,10,9,3,13,6,,0.29,7,Rain-Thunderstorm,188
2011-10-13,73,64,55,57,52,41,100,77,33,29.71,29.64,29.61,10,9,2,23,10,33,0.00,4,Rain,297
2011-10-14,66,57,48,40,36,31,66,48,32,29.93,29.81,29.71,10,10,10,24,11,34,0.00,0,,281
2011-10-15,69,56,42,38,34,31,76,47,25,30.07,29.98,29.88,10,10,10,14,10,24,0.00,0,,250
2011-10-16,69,58,51,49,40,30,71,51,32,29.99,29.89,29.78,10,10,10,21,10,24,0.00,0,,279
2011-10-17,57,47,39,43,37,28,96,73,34,30.03,29.98,29.93,10,8,2,8,5,,0.57,4,Rain,272
2011-10-18,51,48,44,43,37,33,93,72,50,29.92,29.89,29.87,10,10,10,18,9,,0.00,5,,310
2011-10-19,51,44,41,39,35,30,93,70,50,29.87,29.84,29.81,10,10,7,22,14,29,0.00,8,Rain,330
2011-10-20,54,45,37,34,32,28,81,63,45,30.01,29.88,29.81,10,10,10,21,14,30,0.00,3,,302
2011-10-21,60,46,34,32,29,28,79,53,31,30.17,30.11,30.03,10,10,10,8,6,17,0.00,0,,254
2011-10-22,71,55,39,42,37,30,77,55,30,30.09,30.06,30.01,10,10,9,12,5,,0.00,1,,243
2011-10-23,75,62,50,46,43,40,83,57,29,30.02,29.96,29.90,10,10,10,10,5,17,0.00,4,,213
2011-10-24,72,58,45,48,42,35,90,57,28,30.17,30.07,29.92,10,10,6,16,8,23,0.04,1,Rain-Thunderstorm,243
2011-10-25,80,70,59,59,52,37,70,54,39,30.02,29.81,29.69,10,10,7,29,14,36,0.04,3,Rain-Thunderstorm,203
2011-10-26,64,54,44,56,44,39,93,83,72,30.00,29.94,29.77,10,8,2,16,12,,0.01,7,Rain,349
2011-10-27,55,47,39,40,34,24,93,64,38,30.17,30.09,30.01,10,10,7,14,6,18,0.00,2,Rain,330
2011-10-28,59,45,33,37,28,21,82,55,25,30.22,30.14,30.07,10,10,10,13,3,22,0.02,1,Rain,268
2011-10-29,59,46,32,29,23,18,69,45,20,30.17,30.10,30.04,10,10,10,9,6,,0.00,0,,221
2011-10-30,61,50,39,40,33,24,79,52,39,30.03,29.99,29.93,10,10,8,18,10,24,0.05,3,Rain,212
2011-10-31,57,44,34,32,28,25,75,54,31,30.14,30.08,30.02,10,10,10,12,6,,0.00,0,,249